Back to catalog

COSMOS 1321

AliveNavigationLEO
NORAD 12976·PAYLOAD·🇷🇺 Russia

Launched Nov 28, 1981 from Plesetsk Cosmodrome

Loading…

Next Passes (next 24 hours)

TLE

FreshSource: Space-Track

Epoch: Sep 14, 2026, 13:46 UTC

1 12976U 81116B   26257.57379332 -.00000009  00000-0  47550-4 0  9998
2 12976  73.9805 291.5926 0093681 135.8312  31.6396 12.28399896  8736

Track COSMOS 1321 in real time with AllMySat

Download on the App Store